Location: Boiro
(42.6475°N, 8.8834°W)
Time: 07:20:23
(UTC+01:00)

Vanguard 1 - Pass Details

Date: 04 December 2021
Orbit: 652 x 3830 km, 34.2° (Epoch: 21 January)

Event Time Altitude Azimuth Distance (km) Brightness Sun altitude
Rises 06:13:27 0° 278° (W) 7,967 - -27.9°
Reaches altitude 10° 06:19:19 10° 274° (W) 6,833 - -26.8°
Exits shadow 06:29:01 30° 262° (W) 4,928 13.0 -25.1°
Maximum altitude 06:39:27 50° 208° (SSW) 3,393 12.5 -23.2°
Drops below altitude 10° 06:51:52 10° 138° (SE) 4,378 14.1 -20.9°
Sets 06:54:44 0° 132° (SE) 5,030 14.7 -20.4°
